Flag for India Weather past 2 weeks in Pampore, Jammu and Kashmir, India

Now
75 °F

Partly cloudy.


Feels Like: 77 °F
Forecast: 55 / 87 °F
Wind: 5 mph from Southeast

Location: Islamabad Airport

Current Time: Aug 31, 2015 at 4:36:47 AM

Latest Report: Aug 31, 2015 at 3:30 AM


Visibility: 4 mi

Pressure: 29.71 "Hg (24.75 "Hg at 1590m altitude)

Humidity: 74%

Dew point: 66 °F

Location of PamporeLocation

Historic Weather in Pampore — Graph

°F

Pampore temperature yesterday

Maximum temperature yesterday: 93 °F (at 12:30 PM)
Minimum temperature yesterday: 77 °F (at 5:30 AM)
Average temperature yesterday: 82 °F

Past Weeks' High & Low Weather Summary

 TemperatureHumidityPressure
High97 °F (Aug 18, 3:30 PM)89% (Aug 16, 2:30 AM)29.80 "Hg (Aug 16, 2:30 AM)
Low70 °F (Aug 20, 9:30 PM)32% (Aug 25, 6:30 PM)29.59 "Hg (Aug 22, 4:30 PM)
Average85 °F64%29.68 "Hg
* Reported Aug 16 2:30 AM — Aug 31 2:30 AM, Pampore, Weather by CustomWeather, © 2015

Note: Actual official high and low records may vary slightly from our data, if they occured in-between our weather recording intervals... More about our weather records

Advertising

Pampore weather history for previous 24 hours

 ConditionsComfort  
Time TempWeatherWind HumidityBarometerVisibility
2:30 AM
Mon, Aug 31
77 °FPartly cloudy.No wind69%29.71 "Hg4 mi
1:30 AM77 °FPartly cloudy.9 mph69%29.71 "Hg4 mi
12:30 AM77 °FPartly cloudy.12 mph69%29.71 "Hg4 mi
11:30 PM
Sun, Aug 30
77 °FPartly cloudy.16 mph69%29.71 "Hg4 mi
10:30 PM77 °FThundershowers. Partly cloudy.16 mph69%29.71 "Hg4 mi
9:30 PM79 °FLight rain. Partly cloudy.16 mph65%29.74 "Hg4 mi
8:30 PM81 °FThundershowers. Partly cloudy.16 mph66%29.71 "Hg4 mi
7:30 PM81 °FPartly cloudy.16 mph66%29.68 "Hg4 mi
5:30 PM81 °FBroken clouds.23 mph66%29.65 "Hg3 mi
4:30 PM77 °FBroken clouds.23 mph69%29.65 "Hg3 mi
4:00 PM77 °FBroken clouds.28 mph69%29.68 "Hg3 mi
3:30 PM77 °FBroken clouds.35 mph69%29.68 "Hg3 mi
2:30 PM93 °FScattered clouds.7 mph47%29.65 "Hg4 mi
1:30 PM93 °FScattered clouds.7 mph47%29.68 "Hg4 mi
12:30 PM93 °FScattered clouds.7 mph49%29.71 "Hg4 mi
11:30 AM91 °FScattered clouds.7 mph52%29.71 "Hg4 mi
10:30 AM90 °FPassing clouds.9 mph55%29.71 "Hg4 mi
9:30 AM86 °FPassing clouds.7 mph66%29.71 "Hg4 mi
8:30 AM82 °FPassing clouds.7 mph70%29.71 "Hg4 mi
7:30 AM81 °FPassing clouds.No wind74%29.71 "Hg4 mi
6:30 AM77 °FPassing clouds.No wind83%29.68 "Hg4 mi
5:30 AM77 °FPassing clouds.No wind83%29.68 "Hg4 mi
Weather by CustomWeather, © 2015

See weather overviewHow to use our weather pages